Theta_e
350 351 350 348 347 347 348 349 349 347 345 345 345 344 344 343 335 332 331 334 346 346 341 341 339 340 340 342 341 342 343 343 342
351 351 351 351 350 348 347 348 349 349 347 345 344 346 346 340 336 334 333 335 347 347 343 341 341 338 338 339 340 341 342 341 340
347 349 350 350 350 350 350 349 348 350 350 348 346 345 342 340 335 332 331 335 343 348 346 341 339 338 338 338 338 339 339 340 341
333 339 345 348 350 349 349 349 349 349 349 349 347 343 341 336 334 335 331 335 341 347 347 344 341 340 340 340 339 338 338 337 337
324 327 330 338 347 348 348 348 349 348 347 347 346 342 339 335 335 335 334 339 342 344 348 346 344 342 341 340 340 340 339 338 338
315 321 326 328 331 336 345 347 346 345 343 343 343 340 338 334 334 335 338 342 343 343 347 349 346 344 342 341 341 341 340 340 339
315 315 321 321 323 324 328 339 344 341 339 339 339 340 338 335 335 335 338 341 341 342 346 349 348 347 346 344 342 342 341 341 340
309 309 309 310 316 313 318 322 329 335 337 337 338 338 336 337 337 337 338 341 343 342 347 348 348 347 347 347 344 344 344 343 342
307 308 308 308 309 309 310 314 317 323 332 335 335 334 335 337 337 336 334 338 341 342 346 346 347 346 346 346 346 345 344 344 343
308 308 308 308 309 308 308 309 312 314 321 329 332 333 333 334 336 334 330 333 336 341 343 345 348 346 346 345 345 345 345 345 344
310 309 309 309 309 309 308 309 310 311 313 316 322 328 330 332 336 338 338 335 337 339 342 344 345 347 345 344 345 344 344 346 345
311 311 311 312 312 310 310 310 310 310 312 311 314 319 324 327 329 330 331 332 332 335 340 342 343 344 344 344 345 344 344 344 344
309 310 310 311 314 314 313 311 310 309 309 309 310 311 316 319 322 327 328 330 332 333 336 338 339 340 342 343 344 344 342 342 342
308 308 308 309 310 311 312 311 311 310 310 312 311 310 311 312 318 317 320 324 328 329 331 331 332 334 337 339 340 341 342 342 341
306 306 307 308 307 308 308 308 310 311 309 312 313 311 311 311 311 311 314 315 319 320 324 327 328 329 333 336 336 337 337 340 340
308 305 305 306 306 306 306 307 306 309 309 308 307 309 311 310 311 311 312 313 316 316 317 321 321 323 325 323 325 331 334 335 335
306 304 305 305 305 305 305 306 305 306 308 306 304 303 306 308 311 312 312 310 313 315 317 318 315 316 314 315 317 320 326 330 333
304 302 302 303 304 303 304 305 305 303 305 307 307 302 301 304 307 307 307 306 309 312 315 313 309 309 308 310 310 313 316 322 326
301 300 299 300 302 304 304 305 306 306 303 307 307 308 306 301 298 303 303 304 305 307 309 307 306 306 306 305 307 310 312 318 323
299 299 297 297 297 297 299 302 304 305 304 303 303 303 304 305 301 298 300 302 303 305 304 303 302 300 300 301 301 305 310 314 317
Wind_Speed
7 6 5 6 6 6 7 6 7 6 5 5 6 5 5 6 4 3 6 6 10 11 8 8 7 5 5 5 4 3 5 5 5
9 8 8 8 8 8 9 9 9 9 8 8 8 8 7 4 5 3 5 5 11 12 10 9 8 7 7 6 6 6 5 5 5
11 12 11 10 11 11 11 11 11 10 11 10 9 8 8 5 5 5 4 8 11 14 12 11 10 9 8 8 8 8 8 8 7
13 13 14 14 12 12 12 12 13 12 12 12 10 9 9 5 4 6 4 9 11 12 13 12 11 10 10 10 10 10 9 9 9
13 13 14 16 14 11 12 13 13 13 13 13 11 10 10 6 5 5 5 12 13 15 14 14 13 13 12 12 12 12 12 11 11
7 9 12 15 17 16 16 14 14 13 12 12 11 10 4 5 5 4 11 16 17 17 16 16 16 15 14 14 14 14 14 14 13
7 8 12 15 15 16 18 17 15 10 4 4 9 5 6 5 6 6 15 19 19 18 16 16 17 16 16 16 16 16 16 16 15
4 4 4 5 8 5 8 8 6 7 4 4 5 6 6 5 5 9 15 20 20 19 17 17 18 17 17 18 18 18 17 17 16
4 3 5 4 3 6 5 4 6 6 6 6 6 6 5 4 5 7 13 18 21 20 19 18 20 19 18 19 19 19 19 18 18
4 4 4 4 4 3 5 5 5 6 6 5 5 6 6 6 4 3 10 11 15 20 20 19 21 22 20 21 20 19 20 20 20
4 5 5 5 4 4 4 4 4 5 4 6 6 5 5 5 5 3 5 11 12 15 17 19 19 21 21 22 21 21 21 21 21
6 5 6 6 7 7 5 5 3 4 4 5 5 5 5 4 5 4 4 5 8 11 16 20 19 20 23 23 22 21 21 21 22
5 6 6 8 6 6 6 5 6 4 4 4 5 4 4 4 4 4 4 4 4 6 11 14 15 18 21 24 24 23 21 22 23
4 5 5 7 6 6 7 7 4 6 6 6 4 4 4 5 4 6 5 5 5 5 7 11 12 14 18 20 22 24 22 22 22
4 4 5 5 6 6 7 7 6 5 7 7 5 5 4 4 4 4 4 5 5 5 6 5 5 9 12 15 18 20 20 19 20
6 4 4 4 7 8 9 7 9 6 9 4 6 5 4 5 4 4 4 7 6 7 7 6 7 8 20 22 22 19 17 17 17
5 5 4 7 6 7 6 7 5 5 7 4 3 4 4 5 5 5 6 7 6 7 8 10 10 9 7 13 22 23 21 18 17
5 5 5 4 6 5 6 6 7 5 6 7 2 4 3 6 1 3 4 6 6 7 6 10 12 11 9 11 14 23 22 20 19
3 4 4 4 3 4 3 4 4 4 4 4 6 3 2 2 5 3 4 5 6 8 7 7 9 9 7 13 17 21 21 21 20
3 4 4 4 3 4 5 5 5 4 3 3 3 3 4 1 2 4 5 3 5 5 7 7 6 9 8 7 12 20 20 20 18
Wind_Direction
282 276 257 260 261 264 266 268 241 239 243 252 257 256 256 274 286 281 282 288 226 197 190 188 186 186 195 196 191 175 172 166 171
292 282 270 261 257 262 264 264 263 248 243 248 253 256 266 250 273 262 280 303 240 206 194 189 189 202 216 226 227 225 216 210 209
319 309 294 271 267 263 262 261 262 260 247 250 251 249 255 252 261 267 267 281 280 224 200 204 204 208 215 227 235 238 236 235 234
337 320 305 294 276 267 264 263 264 262 256 250 243 244 249 243 252 266 251 263 285 267 214 207 211 215 221 227 230 235 239 240 239
356 7 352 338 304 277 268 265 261 260 257 250 242 241 247 242 241 250 257 258 262 265 254 219 218 219 221 229 235 237 237 237 236
2 357 1 0 359 338 307 283 261 253 245 249 248 242 232 230 235 238 250 263 264 263 269 218 220 222 222 228 234 236 238 238 237
0 356 359 355 352 351 352 333 297 274 237 243 245 242 230 230 236 239 241 251 257 257 259 223 221 222 220 222 229 236 239 239 240
356 349 350 346 348 347 342 343 340 315 272 236 235 237 224 235 239 244 242 250 253 254 249 235 228 226 225 224 227 231 235 238 238
344 344 331 337 328 329 333 326 322 325 305 268 252 240 234 238 243 245 242 251 256 256 251 244 231 231 231 233 232 230 231 233 235
332 335 326 324 324 314 321 324 325 326 324 307 269 259 248 244 242 253 265 263 268 268 260 258 235 233 237 235 236 237 237 235 233
349 332 329 325 321 308 304 301 305 308 320 319 317 289 280 274 260 249 258 260 262 273 287 274 253 247 248 245 241 236 236 238 238
349 347 350 345 335 325 321 313 301 306 310 302 309 309 308 299 294 289 273 282 272 265 272 269 266 263 261 258 254 249 242 241 242
357 358 354 343 340 344 347 342 329 318 308 305 301 303 303 298 292 285 284 277 282 277 271 279 289 277 264 265 268 268 261 251 248
10 358 347 350 350 354 349 342 344 336 347 321 299 306 297 296 306 299 305 302 294 295 283 277 277 281 291 288 283 281 275 269 261
10 352 345 353 356 356 355 344 353 329 353 326 331 303 289 292 300 314 319 346 352 344 341 316 304 281 287 303 313 309 298 290 285
356 342 347 358 4 1 358 352 348 352 358 340 334 308 333 16 359 34 40 24 8 13 19 26 22 15 33 25 22 13 358 336 316
9 342 341 5 360 0 353 358 346 347 357 344 299 332 334 10 10 50 37 22 2 12 24 36 28 22 26 27 20 14 6 360 350
23 5 354 352 360 358 356 352 356 347 348 345 355 345 4 340 9 55 32 14 360 3 24 37 32 23 21 19 14 8 3 356 349
44 25 12 351 339 350 342 0 345 347 347 320 11 0 291 314 315 343 5 2 18 25 38 38 34 21 17 17 6 4 360 360 357
23 22 5 2 3 1 6 358 360 1 359 10 344 319 305 32 297 305 331 350 11 50 42 46 39 21 12 10 3 1 359 2 2